Location: Newark
(52.3500°N, 175.9667°E)
Time: 10:13:13
(UTC+00:00)

Transit 4A - Pass Details

Date: 19 April 2021
Orbit: 870 x 974 km, 66.8° (Epoch: 07 May)

Event Time Altitude Azimuth Distance (km) Brightness Sun altitude
Rises 16:24:50 0° 298° (WNW) 3,580 10.6 -6.9°
Reaches altitude 10° 16:28:08 10° 315° (NW) 2,616 10.1 -6.5°
Maximum altitude 16:32:32 20° 2° (N) 1,953 10.0 -5.9°
Drops below altitude 10° 16:36:52 10° 49° (NE) 2,566 11.8 -5.3°
Sets 16:40:03 0° 66° (ENE) 3,490 14.0 -4.9°
